SCP
0 0 0 0 0 0 0 0 0 0 0 0 0 0 0 0 0 0 0 -0 -0 0 0 0 -0 -0 -0 -0 -0 -0 -0 -0 -0 -0 -0 -0 -0 -0 -0 -0 -0 -0 0 0 0 -0 -0 -0 -0
0 0 0 0 0 0 0 0 0 0 0 0 0 0 1 1 1 0 0 0 -0 0 0 0 -0 -0 -0 0 -0 -0 -0 -0 -0 -0 -0 -0 -0 -0 -0 -0 -0 -0 -0 -0 -0 -0 -0 -0 -0
0 0 0 0 0 0 0 0 0 0 0 0 1 2 1 1 0 0 0 0 -0 0 0 0 0 -0 -0 -0 -0 -0 -0 -0 -0 -0 -0 -0 -0 -0 -0 -0 -0 -0 -0 -0 -0 -0 0 -0 -0
0 0 0 0 0 0 0 0 0 0 1 0 2 2 1 1 0 0 -0 0 0 0 0 0 0 0 0 -0 -0 -0 -0 -0 -0 -0 -0 -0 -0 -0 -0 -0 -0 -0 -0 -0 -0 -0 0 -0 -0
0 0 0 0 0 0 0 0 0 0 1 1 3 1 1 1 0 -0 0 0 0 0 0 0 0 0 0 0 0 -0 -0 -0 -0 -0 -0 -0 -0 -0 -0 -0 -0 -0 -0 -0 -0 0 0 -0 -0
0 0 0 0 0 0 0 0 0 0 0 1 2 2 1 1 1 0 0 0 0 0 0 0 0 0 0 0 0 -0 -0 -0 -0 -0 -0 -0 -0 -0 -0 -0 -0 -0 -0 0 -0 0 0 -0 -0
0 0 0 0 0 0 0 0 0 0 0 0 1 2 1 1 1 1 0 0 0 0 0 0 0 0 0 0 0 -0 -0 -0 -0 -0 -0 -0 -0 -0 -0 -0 -0 0 0 0 0 0 0 0 0
0 0 0 0 0 0 0 -0 -0 0 0 1 3 2 2 1 1 1 0 0 0 0 0 0 0 0 0 0 0 -0 -0 -0 -0 -0 -0 -0 -0 -0 0 0 0 0 0 0 0 0 0 -0 -0
0 0 0 0 0 0 0 0 0 0 0 2 2 1 1 1 2 1 1 0 1 0 0 0 0 0 0 0 0 0 -0 -0 0 0 -0 -0 -0 0 0 0 0 0 0 0 0 0 0 0 -0
0 0 0 0 0 0 0 0 0 0 0 1 1 1 1 1 2 1 1 1 1 0 0 0 0 0 0 0 0 0 -0 -0 -0 0 -0 -0 -0 0 0 -0 0 0 0 0 0 0 0 0 0
0 0 0 0 0 0 -0 0 0 0 0 1 0 0 1 1 2 1 1 1 1 0 0 0 0 0 0 0 0 0 0 -0 -0 -0 -0 -0 0 0 -0 0 0 0 0 0 0 0 0 0 0
0 0 0 0 0 0 0 0 0 0 0 0 -0 0 0 1 2 1 1 1 1 0 0 0 0 0 0 0 0 0 0 0 0 0 0 0 0 0 0 0 0 0 0 0 0 0 0 0 0
0 0 0 0 -0 0 0 0 0 0 0 0 -0 -0 0 0 1 1 1 1 1 0 0 0 0 0 0 0 0 0 0 0 0 0 0 0 0 0 0 0 0 0 0 0 0 0 0 0 0
0 0 0 0 0 -0 -0 -0 0 0 0 0 1 0 0 0 1 1 2 1 1 0 0 0 0 0 0 0 0 0 0 0 0 0 0 0 0 0 0 0 0 0 0 0 0 0 0 0 0
-0 0 0 0 0 0 0 -0 -0 0 0 0 0 0 0 0 1 1 2 2 1 0 0 0 0 0 0 0 0 0 0 0 0 0 0 0 0 0 0 0 0 0 0 0 0 0 0 0 0
0 0 0 0 0 0 0 0 -0 0 0 0 0 0 0 0 1 1 1 2 0 0 0 0 0 0 0 0 0 0 0 0 0 0 0 0 0 0 0 0 0 0 0 0 0 0 0 0 0
0 0 0 0 0 0 0 -0 -0 -0 0 0 0 0 0 0 0 0 0 1 1 0 0 0 0 0 0 0 0 0 0 0 0 0 0 0 0 0 0 0 0 0 0 0 0 0 0 0 0
0 0 0 0 -0 0 0 -0 0 0 0 0 0 0 0 -0 0 0 0 1 0 0 0 0 0 0 0 0 0 0 0 0 0 0 0 0 0 0 0 0 0 0 0 0 0 0 0 0 0
0 0 -0 -0 0 0 -0 0 0 0 0 0 0 0 0 -0 0 0 0 1 0 0 0 0 0 0 0 0 0 0 0 0 0 0 0 0 0 0 0 0 0 0 0 0 0 0 0 0 0
0 -0 0 0 0 0 0 0 0 0 0 0 0 0 0 0 -0 0 0 0 0 0 0 0 0 0 0 0 0 0 0 0 0 0 0 0 0 0 0 0 0 0 0 0 0 0 0 0 0
0 0 -0 -0 0 -0 0 0 0 0 0 0 0 0 0 0 1 0 0 0 0 0 0 0 0 0 0 0 0 0 0 0 0 0 0 0 0 0 0 0 0 0 0 0 0 0 0 0 0
0 0 0 -0 0 0 0 -0 0 0 0 0 0 0 0 0 0 0 0 0 0 0 0 0 0 0 0 0 0 0 0 0 0 0 0 0 0 0 0 0 0 0 0 0 0 0 0 0 0
0 0 0 0 0 -0 -0 0 0 0 0 0 0 0 0 0 0 0 0 0 0 0 0 0 0 0 0 0 0 0 0 0 0 0 0 0 0 0 0 0 0 0 0 0 0 0 0 0 0
0 0 0 0 0 0 0 0 0 0 0 0 0 0 0 1 0 0 0 0 0 0 0 0 0 0 0 0 0 0 0 0 0 0 0 0 0 0 0 0 0 0 0 0 0 0 0 0 0
0 0 0 0 0 0 0 0 0 0 0 0 0 0 0 0 0 0 0 0 0 0 0 0 0 0 0 0 0 0 0 0 0 0 0 0 0 0 0 0 0 0 0 0 0 0 0 0 0
0 0 0 0 0 0 0 0 0 0 0 0 0 0 0 0 0 0 0 0 0 0 0 0 0 0 0 0 0 0 0 0 0 0 0 0 0 0 0 0 0 0 0 0 0 0 0 0 0
0 0 0 0 0 0 0 0 0 0 0 0 0 0 0 0 0 0 0 0 0 0 0 0 0 0 0 0 0 0 0 0 0 0 0 0 0 0 0 0 0 0 0 0 0 0 0 0 0
0 0 0 0 0 0 0 0 0 0 0 0 0 0 0 0 0 0 0 0 0 0 0 0 0 0 0 0 0 0 0 0 0 0 0 0 0 0 0 0 0 0 0 0 0 0 0 0 0
0 0 0 0 0 0 0 0 0 0 0 0 0 0 0 0 0 0 0 0 0 0 0 0 0 0 0 0 0 0 0 0 0 0 0 0 0 0 0 0 0 0 0 0 0 0 0 0 0
0 0 0 0 0 0 0 0 0 0 0 0 0 0 0 0 0 0 0 0 0 0 0 0 0 0 0 0 0 0 0 0 0 0 0 0 0 0 0 0 0 0 0 0 0 0 0 0 0
Wind_Speed_500mb
11 17 16 4 3 4 8 13 7 19 10 9 12 17 22 16 4 7 39 51 51 55 52 51 43 37 31 28 23 21 17 14 11 7 6 8 10 12 12 13 14 14 14 15 15 16 15 16 16
11 16 8 7 8 11 10 13 14 34 8 15 27 27 16 6 21 46 59 39 41 58 55 51 41 38 33 27 23 18 15 12 10 9 9 10 12 12 14 15 16 16 17 18 17 17 18 18 18
15 3 5 7 8 21 9 11 27 27 16 8 14 30 11 9 44 55 45 48 46 57 54 49 41 37 32 26 22 17 16 15 12 11 12 12 13 14 16 17 18 18 19 20 20 20 20 21 20
10 3 10 6 11 10 11 14 5 7 5 5 35 17 15 20 50 41 55 48 49 56 52 47 42 36 31 26 19 17 16 14 13 14 14 14 15 17 18 19 20 20 21 22 23 22 23 23 23
7 9 5 7 10 14 11 42 10 6 6 4 17 11 17 53 27 52 58 51 57 55 53 47 40 35 30 24 19 18 16 14 15 15 16 17 18 20 20 21 21 22 23 24 24 25 25 25 25
7 5 2 11 13 12 24 48 23 16 19 16 18 30 22 31 45 67 57 48 53 56 55 48 40 33 29 23 21 18 17 16 16 16 18 20 21 21 21 22 23 24 25 26 27 26 26 26 26
4 3 8 11 10 13 20 54 14 34 28 20 40 17 26 49 64 66 59 51 49 52 57 50 43 36 28 24 22 20 18 18 18 18 19 21 22 22 22 23 23 25 26 27 28 28 26 27 26
8 4 6 6 10 15 23 24 37 28 31 30 44 15 19 67 68 67 64 55 52 54 57 52 43 34 28 26 23 22 20 19 21 20 20 21 22 21 22 22 23 25 25 26 28 28 28 28 26
9 5 3 7 10 12 41 21 36 39 38 32 34 18 37 83 74 67 70 62 54 61 58 52 45 35 29 27 25 23 21 22 22 21 20 20 19 19 20 20 21 21 23 23 26 29 31 31 26
4 3 7 12 19 23 36 22 33 24 15 7 7 10 55 89 82 75 77 72 60 63 59 54 45 36 31 28 27 25 25 24 23 20 19 18 18 16 17 18 18 19 22 22 26 27 30 28 28
5 6 15 30 31 38 31 26 37 26 8 10 30 23 80 94 81 74 73 69 64 60 56 51 47 38 34 30 28 25 24 24 22 19 17 15 12 14 16 17 17 19 20 21 23 24 27 26 28
7 15 30 32 46 43 26 37 29 8 20 18 16 51 17 90 86 71 76 70 64 64 56 50 47 43 37 32 29 23 21 20 20 19 14 12 11 12 13 14 16 17 18 19 22 22 24 23 24
17 9 31 33 37 41 41 31 20 42 24 23 9 55 69 67 87 69 74 68 68 69 63 52 44 41 37 32 27 23 22 21 20 16 12 9 7 8 10 12 14 16 17 17 19 20 20 21 19
10 14 27 23 33 31 21 35 26 27 41 42 21 50 58 75 99 86 78 74 75 70 64 54 48 42 39 33 27 24 22 20 19 16 13 10 7 6 7 11 12 12 14 15 17 19 20 21 18
20 9 12 16 21 13 20 31 10 44 38 46 29 31 56 85 94 95 90 80 75 70 62 56 50 46 42 35 30 26 22 20 18 16 12 9 7 4 4 8 9 10 11 14 16 18 18 18 19
4 3 8 11 14 12 14 37 27 33 24 40 49 31 34 55 78 91 93 81 75 71 63 52 52 49 43 37 31 26 24 20 17 14 11 8 5 2 3 5 6 7 9 14 16 18 19 18 20
2 8 8 14 14 11 12 21 12 31 29 37 56 34 42 49 39 59 88 88 83 70 64 56 52 48 43 38 34 29 26 21 16 13 10 7 4 1 1 4 4 5 9 12 16 18 20 20 20
4 10 10 11 6 13 29 36 29 54 38 37 55 51 47 37 59 58 81 86 86 73 68 60 56 51 47 42 36 31 24 19 15 11 9 8 5 2 1 2 3 4 7 11 15 19 21 22 22
12 11 12 13 15 2 18 30 29 38 40 32 30 26 43 35 42 85 77 77 91 81 71 65 64 58 52 46 39 33 28 22 16 11 9 8 5 4 3 2 2 2 6 11 16 18 19 19 19
14 14 14 14 16 7 19 23 31 25 31 34 40 42 27 44 57 81 75 85 78 86 79 72 71 65 56 48 43 34 29 23 16 14 12 7 6 6 5 5 4 1 7 9 14 16 18 20 20
6 9 7 15 17 11 11 16 17 23 36 45 54 51 41 44 61 69 71 78 83 84 78 77 74 67 58 51 45 38 30 20 18 14 13 8 9 8 8 8 5 1 4 8 12 15 16 16 17
7 11 5 18 12 5 5 11 13 18 20 21 45 51 32 43 52 54 64 45 71 88 79 78 74 62 55 43 32 28 24 23 18 15 17 12 11 12 11 10 8 2 2 8 10 14 16 16 14
13 5 10 12 12 8 8 2 14 13 19 22 22 44 32 39 48 57 63 59 32 71 84 77 68 56 42 35 24 22 22 24 22 22 27 20 20 16 12 11 7 3 3 7 10 13 14 14 15
6 10 9 5 2 5 11 11 12 9 19 16 12 42 36 37 40 45 45 54 85 70 62 69 72 44 39 32 33 30 37 39 26 26 24 20 19 21 18 11 6 5 7 9 10 12 13 14 15
2 7 6 3 3 11 11 3 20 17 5 16 15 40 44 38 42 53 56 64 61 60 62 57 46 37 38 42 45 46 37 25 27 28 29 25 23 20 14 9 5 7 10 12 12 13 14 16 18
11 9 7 7 5 10 7 9 12 10 5 5 2 51 50 50 52 52 53 51 57 52 53 46 29 39 36 40 40 39 37 39 36 33 28 24 20 16 11 7 6 9 11 12 14 16 18 19 21
4 8 8 4 5 4 7 13 16 8 10 11 20 37 44 47 60 57 56 55 51 50 49 47 53 47 40 41 40 38 40 39 34 33 26 23 20 15 10 8 7 10 14 16 19 21 24 27 29
9 5 6 5 4 8 10 10 9 11 13 9 12 9 28 46 53 56 49 39 35 35 34 34 40 42 45 41 39 43 44 39 37 34 31 26 21 13 10 8 10 14 18 22 25 26 28 28 28
5 6 9 4 8 7 6 11 10 14 14 9 11 16 44 51 49 45 39 38 39 37 41 45 40 43 44 42 44 46 41 38 34 32 28 23 17 13 10 11 14 18 20 23 23 24 27 29 31
9 11 12 7 10 5 5 12 2 0 6 10 17 36 43 43 43 35 31 33 39 42 44 46 48 45 39 42 42 40 39 35 32 29 24 20 15 10 10 14 16 15 16 20 26 30 32 35 38
Wind_Direction_500mb
274 185 176 227 97 147 214 243 253 279 329 170 80 113 116 66 120 171 157 164 166 163 162 160 159 156 154 153 146 141 141 137 141 138 114 91 80 73 60 55 52 46 40 37 34 30 24 19 16
194 155 159 234 158 209 233 231 245 246 253 129 101 104 59 75 106 142 152 173 175 164 162 162 157 155 155 152 148 146 146 147 142 124 105 95 84 73 67 62 57 55 51 46 40 35 31 30 28
175 231 225 166 202 212 204 222 228 251 204 205 111 86 86 126 136 148 172 167 167 164 163 158 157 157 155 151 149 149 147 142 137 126 113 99 85 77 70 67 64 60 55 49 44 39 38 38 39
348 284 262 209 226 234 227 256 328 207 192 291 125 72 97 130 148 179 165 165 173 165 161 158 158 159 155 151 150 148 144 140 131 121 109 98 89 83 79 73 67 61 56 51 47 45 46 46 48
317 265 246 268 242 282 256 256 246 256 210 211 107 124 105 150 159 162 160 167 171 159 160 158 158 160 153 150 150 146 142 136 127 119 111 103 95 89 80 74 69 63 58 54 53 51 51 52 55
317 256 301 252 284 262 271 259 247 222 223 192 101 120 154 157 168 157 163 176 170 158 159 156 161 159 155 152 149 144 140 131 124 118 112 105 99 90 82 75 69 65 62 58 55 55 53 54 59
253 41 249 297 272 275 250 260 234 229 203 220 154 129 161 159 163 161 170 170 164 165 161 161 162 162 158 155 149 143 137 130 122 117 111 106 97 88 81 75 71 68 65 62 59 55 52 52 58
286 245 254 280 290 287 266 318 282 248 220 210 181 155 172 169 165 168 168 170 170 172 168 164 164 164 161 156 149 143 136 129 124 120 116 108 95 87 81 76 73 70 67 63 61 56 56 52 51
260 239 277 251 265 267 313 345 318 305 221 197 196 193 191 163 166 168 168 171 176 172 170 166 165 165 163 157 149 142 135 130 126 122 118 107 96 82 75 73 70 74 72 68 64 59 53 47 48
200 224 241 251 272 304 309 330 323 335 206 160 124 239 159 161 170 169 175 170 178 171 171 168 168 165 163 159 151 143 138 134 128 124 116 107 91 89 80 73 70 70 71 70 62 56 51 46 47
236 214 265 285 295 315 309 320 332 337 349 347 170 118 159 162 174 171 179 175 180 173 169 173 167 166 165 161 153 148 143 140 134 123 113 104 100 87 80 76 71 67 70 66 61 53 50 46 48
239 256 268 283 295 301 302 309 322 342 333 304 190 203 234 167 180 181 184 178 181 173 174 173 170 163 162 159 152 147 145 137 135 132 130 115 95 82 74 72 69 70 67 60 53 48 49 47 47
239 262 283 294 310 306 316 301 295 301 333 3 267 174 198 190 181 186 184 180 182 179 174 176 175 165 161 159 147 152 153 149 151 149 136 117 98 83 80 73 68 69 67 57 49 45 44 49 46
298 289 288 270 300 305 309 303 307 274 305 319 280 212 197 203 185 185 185 183 183 180 176 176 176 165 161 163 156 161 157 156 157 156 146 137 117 86 78 79 69 72 69 54 45 43 36 37 37
299 313 295 254 259 263 324 300 221 277 293 297 302 231 207 204 191 189 185 185 183 180 181 180 174 167 169 169 169 167 163 161 161 163 155 141 122 98 87 88 75 71 62 48 43 39 35 35 33
259 346 305 282 238 270 135 266 273 282 314 288 282 251 216 225 192 191 185 185 186 185 180 180 176 174 174 175 171 167 167 167 164 165 162 150 133 116 70 91 75 67 55 45 37 35 32 32 29
300 288 243 302 219 257 180 269 303 298 280 297 279 259 233 220 215 183 191 187 188 188 181 184 182 177 177 177 172 174 172 166 169 169 171 163 163 174 90 83 88 61 40 43 34 27 28 30 32
278 303 285 255 283 211 252 265 271 275 294 299 270 258 233 219 220 232 190 189 192 193 187 187 181 179 178 179 175 173 174 172 176 180 185 191 193 234 210 139 108 69 39 32 32 28 26 27 33
256 257 289 289 267 318 245 250 259 264 273 281 270 268 232 214 204 198 200 191 193 196 186 185 180 181 182 179 174 175 176 179 183 192 200 210 216 237 241 187 132 56 39 24 26 28 28 29 28
280 285 294 297 323 223 285 263 260 255 261 274 280 272 243 210 205 217 192 193 191 187 188 183 180 180 179 177 174 174 175 179 184 191 204 214 231 229 210 195 172 54 26 21 24 27 27 19 21
266 260 302 302 300 284 262 283 276 274 240 250 265 283 255 222 204 207 200 197 198 188 185 185 180 180 178 178 174 169 172 170 180 194 204 212 229 223 196 198 196 189 32 10 16 15 19 19 12
279 189 282 301 334 256 76 286 289 262 234 224 242 259 250 213 206 200 189 200 185 188 187 186 180 179 176 166 168 170 178 184 186 220 227 221 238 216 193 198 207 222 20 3 357 3 3 0 1
243 200 237 266 285 318 287 91 263 261 245 232 230 241 220 212 211 208 202 201 220 180 184 184 178 169 165 172 181 198 228 247 235 214 211 206 188 193 197 203 224 253 337 340 345 347 348 342 344
319 293 283 176 173 321 262 167 268 256 238 245 228 221 209 206 213 205 197 198 201 212 194 180 178 170 174 177 189 208 224 225 195 202 210 200 196 195 196 199 216 274 313 320 332 333 334 333 331
148 18 356 20 346 235 236 321 242 254 331 224 201 200 194 190 196 191 178 179 179 172 198 188 181 180 174 181 193 200 195 191 213 219 210 202 189 182 189 199 236 288 300 311 323 323 321 319 317
209 169 154 261 240 271 323 266 260 300 175 144 293 212 195 186 170 177 178 173 168 173 178 176 194 209 200 195 195 201 189 199 201 204 193 184 188 187 194 213 251 282 298 310 317 315 313 313 310
326 191 191 222 247 45 252 283 304 308 300 42 22 192 187 182 179 178 184 180 176 178 180 183 184 195 199 192 183 189 198 197 191 191 186 187 188 189 198 224 260 281 291 306 309 310 308 308 309
186 302 36 355 292 297 283 272 244 306 283 342 51 123 163 167 174 178 183 187 186 184 184 188 187 188 183 179 176 189 195 194 187 180 180 178 181 185 203 237 273 291 304 308 310 311 311 313 315
137 257 221 209 163 212 289 272 215 255 265 229 149 138 141 154 166 169 177 185 185 182 184 182 175 172 168 175 180 180 181 177 175 171 174 175 181 196 224 260 288 300 310 314 320 323 322 322 321
173 220 179 141 270 252 172 272 248 276 9 194 173 153 151 156 154 159 168 171 171 170 170 169 167 169 171 174 174 173 170 171 171 167 170 178 192 217 262 286 296 309 322 328 325 324 323 318 318
Wind_Speed_850mb
11 17 16 4 3 4 8 13 7 19 10 9 12 17 22 16 4 7 39 51 51 55 52 51 43 37 31 28 23 21 17 14 11 7 6 8 10 12 12 13 14 14 14 15 15 16 15 16 16
11 16 8 7 8 11 10 13 14 34 8 15 27 27 16 6 21 46 59 39 41 58 55 51 41 38 33 27 23 18 15 12 10 9 9 10 12 12 14 15 16 16 17 18 17 17 18 18 18
15 3 5 7 8 21 9 11 27 27 16 8 14 30 11 9 44 55 45 48 46 57 54 49 41 37 32 26 22 17 16 15 12 11 12 12 13 14 16 17 18 18 19 20 20 20 20 21 20
10 3 10 6 11 10 11 14 5 7 5 5 35 17 15 20 50 41 55 48 49 56 52 47 42 36 31 26 19 17 16 14 13 14 14 14 15 17 18 19 20 20 21 22 23 22 23 23 23
7 9 5 7 10 14 11 42 10 6 6 4 17 11 17 53 27 52 58 51 57 55 53 47 40 35 30 24 19 18 16 14 15 15 16 17 18 20 20 21 21 22 23 24 24 25 25 25 25
7 5 2 11 13 12 24 48 23 16 19 16 18 30 22 31 45 67 57 48 53 56 55 48 40 33 29 23 21 18 17 16 16 16 18 20 21 21 21 22 23 24 25 26 27 26 26 26 26
4 3 8 11 10 13 20 54 14 34 28 20 40 17 26 49 64 66 59 51 49 52 57 50 43 36 28 24 22 20 18 18 18 18 19 21 22 22 22 23 23 25 26 27 28 28 26 27 26
8 4 6 6 10 15 23 24 37 28 31 30 44 15 19 67 68 67 64 55 52 54 57 52 43 34 28 26 23 22 20 19 21 20 20 21 22 21 22 22 23 25 25 26 28 28 28 28 26
9 5 3 7 10 12 41 21 36 39 38 32 34 18 37 83 74 67 70 62 54 61 58 52 45 35 29 27 25 23 21 22 22 21 20 20 19 19 20 20 21 21 23 23 26 29 31 31 26
4 3 7 12 19 23 36 22 33 24 15 7 7 10 55 89 82 75 77 72 60 63 59 54 45 36 31 28 27 25 25 24 23 20 19 18 18 16 17 18 18 19 22 22 26 27 30 28 28
5 6 15 30 31 38 31 26 37 26 8 10 30 23 80 94 81 74 73 69 64 60 56 51 47 38 34 30 28 25 24 24 22 19 17 15 12 14 16 17 17 19 20 21 23 24 27 26 28
7 15 30 32 46 43 26 37 29 8 20 18 16 51 17 90 86 71 76 70 64 64 56 50 47 43 37 32 29 23 21 20 20 19 14 12 11 12 13 14 16 17 18 19 22 22 24 23 24
17 9 31 33 37 41 41 31 20 42 24 23 9 55 69 67 87 69 74 68 68 69 63 52 44 41 37 32 27 23 22 21 20 16 12 9 7 8 10 12 14 16 17 17 19 20 20 21 19
10 14 27 23 33 31 21 35 26 27 41 42 21 50 58 75 99 86 78 74 75 70 64 54 48 42 39 33 27 24 22 20 19 16 13 10 7 6 7 11 12 12 14 15 17 19 20 21 18
20 9 12 16 21 13 20 31 10 44 38 46 29 31 56 85 94 95 90 80 75 70 62 56 50 46 42 35 30 26 22 20 18 16 12 9 7 4 4 8 9 10 11 14 16 18 18 18 19
4 3 8 11 14 12 14 37 27 33 24 40 49 31 34 55 78 91 93 81 75 71 63 52 52 49 43 37 31 26 24 20 17 14 11 8 5 2 3 5 6 7 9 14 16 18 19 18 20
2 8 8 14 14 11 12 21 12 31 29 37 56 34 42 49 39 59 88 88 83 70 64 56 52 48 43 38 34 29 26 21 16 13 10 7 4 1 1 4 4 5 9 12 16 18 20 20 20
4 10 10 11 6 13 29 36 29 54 38 37 55 51 47 37 59 58 81 86 86 73 68 60 56 51 47 42 36 31 24 19 15 11 9 8 5 2 1 2 3 4 7 11 15 19 21 22 22
12 11 12 13 15 2 18 30 29 38 40 32 30 26 43 35 42 85 77 77 91 81 71 65 64 58 52 46 39 33 28 22 16 11 9 8 5 4 3 2 2 2 6 11 16 18 19 19 19
14 14 14 14 16 7 19 23 31 25 31 34 40 42 27 44 57 81 75 85 78 86 79 72 71 65 56 48 43 34 29 23 16 14 12 7 6 6 5 5 4 1 7 9 14 16 18 20 20
6 9 7 15 17 11 11 16 17 23 36 45 54 51 41 44 61 69 71 78 83 84 78 77 74 67 58 51 45 38 30 20 18 14 13 8 9 8 8 8 5 1 4 8 12 15 16 16 17
7 11 5 18 12 5 5 11 13 18 20 21 45 51 32 43 52 54 64 45 71 88 79 78 74 62 55 43 32 28 24 23 18 15 17 12 11 12 11 10 8 2 2 8 10 14 16 16 14
13 5 10 12 12 8 8 2 14 13 19 22 22 44 32 39 48 57 63 59 32 71 84 77 68 56 42 35 24 22 22 24 22 22 27 20 20 16 12 11 7 3 3 7 10 13 14 14 15
6 10 9 5 2 5 11 11 12 9 19 16 12 42 36 37 40 45 45 54 85 70 62 69 72 44 39 32 33 30 37 39 26 26 24 20 19 21 18 11 6 5 7 9 10 12 13 14 15
2 7 6 3 3 11 11 3 20 17 5 16 15 40 44 38 42 53 56 64 61 60 62 57 46 37 38 42 45 46 37 25 27 28 29 25 23 20 14 9 5 7 10 12 12 13 14 16 18
11 9 7 7 5 10 7 9 12 10 5 5 2 51 50 50 52 52 53 51 57 52 53 46 29 39 36 40 40 39 37 39 36 33 28 24 20 16 11 7 6 9 11 12 14 16 18 19 21
4 8 8 4 5 4 7 13 16 8 10 11 20 37 44 47 60 57 56 55 51 50 49 47 53 47 40 41 40 38 40 39 34 33 26 23 20 15 10 8 7 10 14 16 19 21 24 27 29
9 5 6 5 4 8 10 10 9 11 13 9 12 9 28 46 53 56 49 39 35 35 34 34 40 42 45 41 39 43 44 39 37 34 31 26 21 13 10 8 10 14 18 22 25 26 28 28 28
5 6 9 4 8 7 6 11 10 14 14 9 11 16 44 51 49 45 39 38 39 37 41 45 40 43 44 42 44 46 41 38 34 32 28 23 17 13 10 11 14 18 20 23 23 24 27 29 31
9 11 12 7 10 5 5 12 2 0 6 10 17 36 43 43 43 35 31 33 39 42 44 46 48 45 39 42 42 40 39 35 32 29 24 20 15 10 10 14 16 15 16 20 26 30 32 35 38
Wind_Direction_850mb
274 185 176 227 97 147 214 243 253 279 329 170 80 113 116 66 120 171 157 164 166 163 162 160 159 156 154 153 146 141 141 137 141 138 114 91 80 73 60 55 52 46 40 37 34 30 24 19 16
194 155 159 234 158 209 233 231 245 246 253 129 101 104 59 75 106 142 152 173 175 164 162 162 157 155 155 152 148 146 146 147 142 124 105 95 84 73 67 62 57 55 51 46 40 35 31 30 28
175 231 225 166 202 212 204 222 228 251 204 205 111 86 86 126 136 148 172 167 167 164 163 158 157 157 155 151 149 149 147 142 137 126 113 99 85 77 70 67 64 60 55 49 44 39 38 38 39
348 284 262 209 226 234 227 256 328 207 192 291 125 72 97 130 148 179 165 165 173 165 161 158 158 159 155 151 150 148 144 140 131 121 109 98 89 83 79 73 67 61 56 51 47 45 46 46 48
317 265 246 268 242 282 256 256 246 256 210 211 107 124 105 150 159 162 160 167 171 159 160 158 158 160 153 150 150 146 142 136 127 119 111 103 95 89 80 74 69 63 58 54 53 51 51 52 55
317 256 301 252 284 262 271 259 247 222 223 192 101 120 154 157 168 157 163 176 170 158 159 156 161 159 155 152 149 144 140 131 124 118 112 105 99 90 82 75 69 65 62 58 55 55 53 54 59
253 41 249 297 272 275 250 260 234 229 203 220 154 129 161 159 163 161 170 170 164 165 161 161 162 162 158 155 149 143 137 130 122 117 111 106 97 88 81 75 71 68 65 62 59 55 52 52 58
286 245 254 280 290 287 266 318 282 248 220 210 181 155 172 169 165 168 168 170 170 172 168 164 164 164 161 156 149 143 136 129 124 120 116 108 95 87 81 76 73 70 67 63 61 56 56 52 51
260 239 277 251 265 267 313 345 318 305 221 197 196 193 191 163 166 168 168 171 176 172 170 166 165 165 163 157 149 142 135 130 126 122 118 107 96 82 75 73 70 74 72 68 64 59 53 47 48
200 224 241 251 272 304 309 330 323 335 206 160 124 239 159 161 170 169 175 170 178 171 171 168 168 165 163 159 151 143 138 134 128 124 116 107 91 89 80 73 70 70 71 70 62 56 51 46 47
236 214 265 285 295 315 309 320 332 337 349 347 170 118 159 162 174 171 179 175 180 173 169 173 167 166 165 161 153 148 143 140 134 123 113 104 100 87 80 76 71 67 70 66 61 53 50 46 48
239 256 268 283 295 301 302 309 322 342 333 304 190 203 234 167 180 181 184 178 181 173 174 173 170 163 162 159 152 147 145 137 135 132 130 115 95 82 74 72 69 70 67 60 53 48 49 47 47
239 262 283 294 310 306 316 301 295 301 333 3 267 174 198 190 181 186 184 180 182 179 174 176 175 165 161 159 147 152 153 149 151 149 136 117 98 83 80 73 68 69 67 57 49 45 44 49 46
298 289 288 270 300 305 309 303 307 274 305 319 280 212 197 203 185 185 185 183 183 180 176 176 176 165 161 163 156 161 157 156 157 156 146 137 117 86 78 79 69 72 69 54 45 43 36 37 37
299 313 295 254 259 263 324 300 221 277 293 297 302 231 207 204 191 189 185 185 183 180 181 180 174 167 169 169 169 167 163 161 161 163 155 141 122 98 87 88 75 71 62 48 43 39 35 35 33
259 346 305 282 238 270 135 266 273 282 314 288 282 251 216 225 192 191 185 185 186 185 180 180 176 174 174 175 171 167 167 167 164 165 162 150 133 116 70 91 75 67 55 45 37 35 32 32 29
300 288 243 302 219 257 180 269 303 298 280 297 279 259 233 220 215 183 191 187 188 188 181 184 182 177 177 177 172 174 172 166 169 169 171 163 163 174 90 83 88 61 40 43 34 27 28 30 32
278 303 285 255 283 211 252 265 271 275 294 299 270 258 233 219 220 232 190 189 192 193 187 187 181 179 178 179 175 173 174 172 176 180 185 191 193 234 210 139 108 69 39 32 32 28 26 27 33
256 257 289 289 267 318 245 250 259 264 273 281 270 268 232 214 204 198 200 191 193 196 186 185 180 181 182 179 174 175 176 179 183 192 200 210 216 237 241 187 132 56 39 24 26 28 28 29 28
280 285 294 297 323 223 285 263 260 255 261 274 280 272 243 210 205 217 192 193 191 187 188 183 180 180 179 177 174 174 175 179 184 191 204 214 231 229 210 195 172 54 26 21 24 27 27 19 21
266 260 302 302 300 284 262 283 276 274 240 250 265 283 255 222 204 207 200 197 198 188 185 185 180 180 178 178 174 169 172 170 180 194 204 212 229 223 196 198 196 189 32 10 16 15 19 19 12
279 189 282 301 334 256 76 286 289 262 234 224 242 259 250 213 206 200 189 200 185 188 187 186 180 179 176 166 168 170 178 184 186 220 227 221 238 216 193 198 207 222 20 3 357 3 3 0 1
243 200 237 266 285 318 287 91 263 261 245 232 230 241 220 212 211 208 202 201 220 180 184 184 178 169 165 172 181 198 228 247 235 214 211 206 188 193 197 203 224 253 337 340 345 347 348 342 344
319 293 283 176 173 321 262 167 268 256 238 245 228 221 209 206 213 205 197 198 201 212 194 180 178 170 174 177 189 208 224 225 195 202 210 200 196 195 196 199 216 274 313 320 332 333 334 333 331
148 18 356 20 346 235 236 321 242 254 331 224 201 200 194 190 196 191 178 179 179 172 198 188 181 180 174 181 193 200 195 191 213 219 210 202 189 182 189 199 236 288 300 311 323 323 321 319 317
209 169 154 261 240 271 323 266 260 300 175 144 293 212 195 186 170 177 178 173 168 173 178 176 194 209 200 195 195 201 189 199 201 204 193 184 188 187 194 213 251 282 298 310 317 315 313 313 310
326 191 191 222 247 45 252 283 304 308 300 42 22 192 187 182 179 178 184 180 176 178 180 183 184 195 199 192 183 189 198 197 191 191 186 187 188 189 198 224 260 281 291 306 309 310 308 308 309
186 302 36 355 292 297 283 272 244 306 283 342 51 123 163 167 174 178 183 187 186 184 184 188 187 188 183 179 176 189 195 194 187 180 180 178 181 185 203 237 273 291 304 308 310 311 311 313 315
137 257 221 209 163 212 289 272 215 255 265 229 149 138 141 154 166 169 177 185 185 182 184 182 175 172 168 175 180 180 181 177 175 171 174 175 181 196 224 260 288 300 310 314 320 323 322 322 321
173 220 179 141 270 252 172 272 248 276 9 194 173 153 151 156 154 159 168 171 171 170 170 169 167 169 171 174 174 173 170 171 171 167 170 178 192 217 262 286 296 309 322 328 325 324 323 318 318